Regional Weather Roundup
Issued by NWS Cleveland, OH

Home | Current Version | Previous Version | Text Only | Print | Product List | Glossary Off
Versions: 1 2 3 4 5 6 7 8 9 10 11 12 13 14 15 16 17 18 19 20 21 22 23 24 25 26 27 28 29 30 31 32 33 34 35 36 37 38 39 40 41 42 43 44 45 46 47 48 49 50

000
ASUS41 KCLE 232010
RWRCLE
OHIO REGIONAL WEATHER ROUNDUP
NATIONAL WEATHER SERVICE CLEVELAND, OH
400 PM EDT TUE MAY 23 2017

NOTE: "FAIR" INDICATES FEW OR NO CLOUDS BELOW 12,000 FEET WITH NO
SIGNIFICANT WEATHER AND/OR OBSTRUCTIONS TO VISIBILITY.

OHZ001>008-015>018-024>027-034-035-043-044-232100-
   NORTHWEST OHIO

CITY           SKY/WX    TMP DP  RH WIND       PRES   REMARKS
DEFIANCE       CLOUDY    70  43  37 E7        29.74F
FINDLAY        CLOUDY    73  43  33 SE8       29.73F
TOLEDO EXPRESS MOSUNNY   72  45  37 E8        29.74F
TOLEDO EXEC    MOSUNNY   71  50  47 E12       29.76F
LIMA           CLOUDY    70  47  43 E9        29.73F
$$

OHZ009>014-019>023-028>033-038-089-232100-
   NORTHEAST OHIO

CITY           SKY/WX    TMP DP  RH WIND       PRES   REMARKS
CLE-HOPKINS    MOSUNNY   74  50  42 NE15      29.78F
CLE-LAKEFRONT  SUNNY     65  51  60 NE15      29.76F
CUY CO. ARPT   PTSUNNY   75  50  41 SE9       29.77F
LORAIN-ELYRIA  SUNNY     74  43  32 VRB6      29.75F
ASHTABULA      MOSUNNY   74  47  38 SE12G17   29.79F
AKRON-CANTON   CLOUDY    73  44  35 SE12      29.77F
WOOSTER        SUNNY     73  46  38 E14G21    29.76F
MANSFIELD      MOSUNNY   73  47  39 SE10      29.76F
YOUNGSTOWN     CLOUDY    73  44  35 SE13G20   29.78F
$$

OHZ042-051>053-060>062-070>072-077>081-232100-
  SOUTHWEST OHIO

CITY           SKY/WX    TMP DP  RH WIND       PRES   REMARKS
CINC-COVINGTON CLOUDY    73  51  46 E5        29.71F
CINC-LUNKEN    MOSUNNY   76  54  46 CALM      29.70F
HAMILTON       MOSUNNY   75  52  44 E8        29.71F
DAYTON         CLOUDY    72  46  39 E7        29.72F
WRIGHT-PAT AFB CLOUDY    75  48  38 SE8       29.70F
DAYTON GENERAL PTSUNNY   73  48  41 VRB7      29.70F
WILMINGTON     CLOUDY    72  47  40 S7        29.71F
$$

OHZ036-037-039>041-045>050-054>059-063>069-073>076-082>088-232100-
  CENTRAL AND SOUTHEAST OHIO

CITY           SKY/WX    TMP DP  RH WIND       PRES   REMARKS
COLUMBUS       CLOUDY    74  46  36 SE9       29.72F
OSU AIRPORT    MOSUNNY   73  47  39 SE8       29.72F
BOLTON FIELD   SUNNY     73  52  46 E3        29.73F
RICKENBACK AFB PTSUNNY   73  47  39 E9        29.72F
NEWARK         CLOUDY    74  46  36 E8        29.72F
MARION         CLOUDY    73  43  33 E6        29.74F
LANCASTER      CLOUDY    74  51  44 E7        29.73F
ZANESVILLE     CLOUDY    74  47  38 SE9       29.73F
NEW PHILLY     NOT AVBL
$$




USA.gov is the U.S. government's official web portal to all federal, state and local government web resources and services.